[Date Prev][Date Next][Thread Prev][Thread Next] - [Date Index][Thread Index][Author Index]

2 Line ISS Keps 6-6



ISS
1 25544U 98067A   03157.16024669  .00010496  00000-0  13720-3 0   852
2 25544  51.6332  75.6492 0006523 218.4063 297.9426 15.59245535259284


----
Via the sarex mailing list at AMSAT.ORG courtesy of AMSAT-NA.
To unsubscribe, send "unsubscribe sarex" to Majordomo@amsat.org



AMSAT Top AMSAT Home